[[{"header":{"parameterUnit":"m.s-1","parameterCategory":1,"la1":30.2991,"la2":30.254,"lo1":-89.0895,"lo2":-89.0444,"dy":0.0017,"dx":0.0017,"nx":28,"ny":28,"refTime":"2023-08-05T09:00:00:Z","depth":0,"parameterNumber":2,"parameterNumberName":"U-component_of_WINDS"},"data":[0,0,0,0,0,0,0,0,0,0,0,0,0,0,0,0,0,0,0,0,0,0,0,0,0,0,0,0,0,0,0,0,0,0,0,0,0,0,0,0,0,0,0,0,0,0,0,0,0,0,0,0,0,0,0,0,0,0,5.3406,5.3408,0,5.3569,5.3571,5.3573,5.3491,5.3486,5.3482,5.3478,5.3647,5.3655,5.3664,0,0,0,0,0,0,0,0,0,0,0,0,0,5.3024,5.3031,5.3406,5.3408,5.341,5.3569,5.3571,5.3573,5.3491,5.3486,5.3481,5.3476,5.3644,5.3654,5.3664,0,0,0,0,0,0,0,0,0,0,0,0,0,5.3189,5.3034,5.3406,5.3388,5.3388,5.3568,5.3571,5.3574,5.3492,5.3486,5.3479,5.3473,5.3641,5.3653,5.3666,5.3873,0,0,5.3705,5.371,0,0,0,0,0,0,0,0,5.318,5.3203,5.3389,5.339,5.339,5.3503,5.3498,5.3674,5.3494,5.3453,5.3478,5.347,5.3604,5.362,5.3664,5.3881,5.3888,5.3706,5.3713,5.3719,5.3723,0,0,0,0,0,0,0,5.3168,5.3195,5.347,5.3392,5.3392,5.3372,5.3389,5.3531,5.3563,5.3456,5.345,5.3471,5.3603,5.3652,5.3668,5.3891,5.3705,5.3717,5.3725,5.373,5.4283,5.429,0,0,0,0,0,0,5.3157,5.3186,5.3465,5.3475,5.3267,5.3384,5.3403,5.3473,5.3561,5.3568,5.3476,5.3466,5.3634,5.3653,5.3673,5.392,5.3719,5.3731,5.3738,5.4276,5.4284,5.4292,0,0,0,0,0,0,5.315,5.3183,5.3459,5.333,5.3363,5.3398,5.3478,5.348,5.3528,5.3576,5.3581,5.352,5.3629,5.3655,5.3823,5.3924,5.3737,5.3748,5.4268,5.4278,5.4288,5.4416,0,0,0,0,0,0,5.3139,5.3181,5.326,5.3332,5.337,5.3606,5.3484,5.3488,5.355,5.3539,5.3619,5.3626,5.3626,5.3805,5.3836,5.3939,5.3758,5.4259,5.4272,5.4285,5.4402,5.4429,5.4452,0,0,0,0,0,5.3126,5.329,5.3264,5.3298,5.347,5.3612,5.3634,5.3631,5.3559,5.3639,5.3669,5.3623,5.3909,5.3823,5.3857,5.3965,5.4252,5.4268,5.4284,5.4391,5.4424,5.4451,0,0,0,0,0,0,5.323,5.3299,5.3271,5.3464,5.3533,5.3598,5.3698,5.3666,5.3757,5.3743,5.3735,5.3754,5.3928,5.3963,5.3866,5.4169,5.4069,5.4093,5.4139,5.4171,5.4195,5.4182,5.3769,0,0,0,0,0,5.3276,5.3385,5.344,5.3605,5.364,5.3664,5.3726,5.3717,5.3788,5.3817,5.3859,5.3931,5.4036,5.4105,5.4205,5.4408,5.4423,5.4499,5.4524,5.4544,5.4564,5.4671,5.4705,5.4344,5.4344,5.4344,0,0,5.3371,5.3422,5.3492,5.3627,5.3679,5.3792,5.3689,5.3814,5.3897,5.3836,5.3996,5.403,5.4109,5.4294,5.4378,5.4329,5.4667,5.4564,5.458,5.4589,5.4691,5.4725,5.4755,5.4355,5.4353,5.4351,0,0,5.3602,5.3652,5.3794,5.3848,5.3927,5.3942,5.3976,5.4046,5.4066,5.4226,5.4182,5.4282,5.4464,5.4521,5.4574,5.4825,5.4786,5.4858,5.4987,5.5092,5.512,5.5145,5.5233,5.5264,5.4878,5.4878,5.4879,0,5.371,5.3878,5.3871,5.3999,5.4059,5.4007,5.415,5.4203,5.4312,5.4355,5.4299,5.4525,5.4574,5.4771,5.4832,5.4878,5.4915,5.4848,5.5117,5.5142,5.5165,5.5248,5.5281,5.4886,5.4885,5.4885,5.4884,0,5.4006,5.4124,5.4229,5.4334,5.4406,5.4541,5.4553,5.4627,5.4612,5.4632,5.4796,5.4853,5.4962,5.5009,5.4996,5.5204,5.5171,5.5116,5.5015,5.5207,5.5285,5.5317,5.4898,5.4895,5.4893,5.4891,0,0,5.4308,5.4405,5.4444,5.449,5.4574,5.4664,5.4796,5.4902,5.4965,5.5042,5.5151,5.5306,5.5255,5.5315,5.5309,5.5401,5.5593,5.5335,5.5336,5.5379,5.5823,5.5862,5.5899,5.5568,5.5574,5.5579,5.5815,0,5.4543,5.4773,5.4769,5.4983,5.509,5.5042,5.5157,5.5221,5.5243,5.5337,5.5362,5.5471,5.5397,5.5432,5.5521,5.5551,5.5682,5.5534,5.5669,5.5674,5.5649,5.594,5.5983,5.6203,5.5846,5.5851,5.5855,0,5.4848,5.4932,5.5156,5.5222,5.5267,5.537,5.5465,5.5557,5.5628,5.5637,5.5704,5.5682,5.5815,5.5712,5.5895,5.5794,5.5849,5.5872,5.5881,5.5892,5.5775,5.5957,5.6273,5.6305,5.5903,5.59,5.5896,0,5.5042,5.5213,5.5368,5.5409,5.549,5.5563,5.5601,5.5665,5.5728,5.5812,5.5853,5.5952,5.6006,5.6083,5.6088,5.6013,5.6273,5.617,5.6283,5.6283,5.6339,5.6335,5.6666,5.6378,5.6377,5.6377,5.6376,0,5.5304,5.5442,5.5456,5.5551,5.5704,5.5699,5.585,5.5881,5.5938,5.6038,5.6004,5.6099,5.6101,5.6198,5.6203,5.6352,5.6378,5.6388,5.6388,5.6391,5.6389,5.6425,5.6409,5.6385,5.6384,5.6382,5.638,0,5.5546,5.5562,5.5727,5.579,5.5809,5.5919,5.5972,5.6063,5.6081,5.6208,5.6237,5.6267,5.6378,5.6391,5.6523,5.6526,5.6705,5.669,5.6681,5.6678,5.6789,5.6778,5.7154,5.7202,5.6885,5.6888,5.689,0,5.5711,5.5816,5.589,5.5953,5.5994,5.6099,5.6162,5.6161,5.6229,5.6316,5.6396,5.6504,5.659,5.6771,5.6804,5.6903,5.6888,5.7013,5.6903,5.6902,5.6888,5.688,5.689,5.7034,5.7038,5.704,5.7043,0,5.6002,5.6004,5.6096,5.6192,5.6269,5.6344,5.6415,5.647,5.6477,5.6555,5.6668,5.6735,5.6867,5.6975,5.7072,5.711,5.7078,5.7077,5.7108,5.7111,5.7101,5.7105,5.6737,5.7068,5.7066,5.7064,5.7063,5.7061,5.6209,5.6299,5.6364,5.6468,5.6521,5.6588,5.6675,5.6703,5.6797,5.6904,5.6898,5.7023,5.7089,5.7216,5.7262,5.7359,5.7317,5.7363,5.7374,5.7385,5.7395,5.7087,5.7377,5.7376,5.7375,5.7375,5.7374,0,5.6496,5.6535,5.6631,5.673,5.6812,5.6773,5.6849,5.692,5.7029,5.7094,5.7179,5.7308,5.7411,5.7452,5.7553,5.7622,5.761,5.7649,5.7643,5.7651,5.7427,5.7389,5.7657,5.7657,5.7657,5.7657,5.7657,5.7657,5.6655,5.6804,5.6813,5.6988,5.7026,5.7147,5.7193,5.7254,5.7304,5.745,5.7535,5.756,5.7615,5.7719,5.7812,5.7821,5.7859,5.7904,5.7907,5.7696,5.7668,5.764,5.7604,5.7913,5.7913,5.8122,5.8124,5.8126]},{"header":{"parameterUnit":"m.s-1","parameterCategory":1,"la1":30.2991,"la2":30.254,"lo1":-89.0895,"lo2":-89.0444,"dy":0.0017,"dx":0.0017,"nx":28,"ny":28,"refTime":"2023-08-05T09:00:00:Z","depth":0,"parameterNumber":3,"parameterNumberName":"V-component_of_WINDS"},"data":[0,0,0,0,0,0,0,0,0,0,0,0,0,0,0,0,0,0,0,0,0,0,0,0,0,0,0,0,0,0,0,0,0,0,0,0,0,0,0,0,0,0,0,0,0,0,0,0,0,0,0,0,0,0,0,0,0,0,1.3069,1.3069,0,1.3078,1.3078,1.3078,1.3052,1.3051,1.305,1.3049,1.306,1.3061,1.3062,0,0,0,0,0,0,0,0,0,0,0,0,0,1.3028,1.3029,1.3069,1.3069,1.3069,1.3078,1.3078,1.3078,1.3052,1.3051,1.305,1.3049,1.3059,1.306,1.3062,0,0,0,0,0,0,0,0,0,0,0,0,0,1.3042,1.3029,1.3069,1.3057,1.3056,1.3078,1.3078,1.3078,1.3052,1.3051,1.305,1.3049,1.3059,1.306,1.3062,1.3096,0,0,1.3067,1.3067,0,0,0,0,0,0,0,0,1.3042,1.3044,1.3059,1.3058,1.3057,1.3062,1.3067,1.3084,1.3052,1.3054,1.3049,1.3048,1.3062,1.3063,1.3067,1.3096,1.3097,1.3067,1.3068,1.3068,1.3069,0,0,0,0,0,0,0,1.3041,1.3043,1.3072,1.3059,1.3058,1.3051,1.3052,1.307,1.3064,1.3053,1.3052,1.3053,1.3061,1.3066,1.3067,1.3097,1.3067,1.3068,1.3069,1.307,1.3152,1.3153,0,0,0,0,0,0,1.3041,1.3043,1.3072,1.3073,1.3046,1.3053,1.3054,1.3062,1.3064,1.3063,1.3054,1.3052,1.3064,1.3065,1.3068,1.3106,1.3068,1.307,1.3071,1.3151,1.3152,1.3154,0,0,0,0,0,0,1.304,1.3044,1.3072,1.3057,1.306,1.3055,1.3064,1.3063,1.3068,1.3064,1.3063,1.306,1.3063,1.3065,1.3088,1.3106,1.307,1.3072,1.3149,1.3151,1.3153,1.3185,0,0,0,0,0,0,1.3039,1.3044,1.3057,1.3058,1.3061,1.3093,1.3065,1.3064,1.307,1.3067,1.307,1.3069,1.3062,1.3086,1.309,1.3108,1.3073,1.3148,1.315,1.3152,1.3182,1.3187,1.3192,0,0,0,0,0,1.3038,1.3066,1.3058,1.3062,1.3077,1.3094,1.3096,1.3087,1.3072,1.3085,1.3082,1.3069,1.3104,1.3089,1.3093,1.3111,1.3147,1.315,1.3152,1.318,1.3186,1.3192,0,0,0,0,0,0,1.3069,1.3066,1.3057,1.3086,1.309,1.3089,1.3106,1.3094,1.3103,1.31,1.3089,1.309,1.3114,1.3115,1.3099,1.3143,1.3122,1.3126,1.3142,1.3148,1.3153,1.3152,1.3074,0,0,0,0,0,1.3079,1.3092,1.3089,1.3115,1.3118,1.3111,1.3118,1.3111,1.3115,1.3117,1.3116,1.3121,1.3132,1.314,1.3151,1.3182,1.3181,1.3196,1.3201,1.3205,1.3209,1.3224,1.323,1.3163,1.3163,1.3163,0,0,1.31,1.31,1.311,1.3121,1.3124,1.3138,1.3113,1.313,1.314,1.3119,1.3141,1.314,1.3144,1.3171,1.3183,1.3172,1.3227,1.3209,1.3212,1.3213,1.3227,1.3233,1.3239,1.3165,1.3165,1.3164,0,0,1.3145,1.3147,1.3168,1.3171,1.3174,1.3169,1.3174,1.3175,1.3174,1.3195,1.3179,1.3191,1.3212,1.3215,1.3219,1.3264,1.3252,1.3268,1.3294,1.3308,1.3314,1.3318,1.3333,1.3339,1.3271,1.3271,1.3271,0,1.3171,1.3192,1.3181,1.3197,1.3202,1.3184,1.3205,1.3208,1.3215,1.3219,1.3207,1.3231,1.3233,1.3259,1.327,1.3274,1.3279,1.3267,1.3314,1.3318,1.3322,1.3336,1.3342,1.3273,1.3273,1.3273,1.3272,0,1.3222,1.3237,1.3253,1.326,1.3267,1.3286,1.3277,1.3285,1.3277,1.3273,1.3294,1.3295,1.3305,1.3311,1.3303,1.3336,1.3329,1.3316,1.3295,1.3331,1.3344,1.3349,1.3276,1.3275,1.3274,1.3274,0,0,1.3289,1.3287,1.3293,1.3295,1.3297,1.3308,1.3325,1.3334,1.3341,1.3346,1.336,1.3377,1.3364,1.3369,1.3361,1.3374,1.3408,1.3359,1.3359,1.3368,1.3443,1.3452,1.3459,1.34,1.3401,1.3402,1.3442,0,1.3332,1.3362,1.3352,1.3381,1.3394,1.3375,1.339,1.3393,1.3389,1.3399,1.3396,1.3407,1.339,1.3393,1.3405,1.3401,1.3423,1.3398,1.3412,1.3413,1.3411,1.3466,1.3476,1.3514,1.3447,1.3448,1.3449,0,1.3388,1.3394,1.3425,1.3423,1.3427,1.3441,1.3448,1.3457,1.3459,1.3456,1.3461,1.345,1.3466,1.3445,1.3467,1.345,1.3455,1.3454,1.3456,1.3456,1.3433,1.3467,1.3526,1.3532,1.3457,1.3456,1.3456,0,1.3431,1.3448,1.3468,1.347,1.3468,1.3478,1.3478,1.3479,1.3484,1.349,1.3493,1.3501,1.3505,1.3511,1.3502,1.3488,1.3525,1.3504,1.3522,1.3523,1.3531,1.3531,1.3591,1.3535,1.3535,1.3535,1.3535,0,1.3481,1.3501,1.3487,1.3499,1.352,1.3508,1.3529,1.3526,1.3527,1.3538,1.3523,1.3534,1.3522,1.3531,1.3525,1.3543,1.3546,1.3543,1.3541,1.3544,1.3544,1.3547,1.3543,1.3537,1.3536,1.3536,1.3536,0,1.3534,1.3525,1.3546,1.3542,1.3541,1.3557,1.3553,1.3564,1.3559,1.3574,1.3576,1.3569,1.3579,1.3571,1.3581,1.3577,1.3601,1.3595,1.36,1.3598,1.3617,1.3615,1.3681,1.3688,1.3628,1.3629,1.363,0,1.3566,1.358,1.3577,1.3583,1.3584,1.3594,1.3599,1.3587,1.3593,1.3595,1.3606,1.3615,1.3621,1.3638,1.3634,1.3641,1.3635,1.3658,1.3637,1.3639,1.3635,1.3634,1.3634,1.3662,1.3663,1.3664,1.3664,0,1.3623,1.3618,1.3625,1.3631,1.3637,1.3642,1.3645,1.3651,1.3638,1.3646,1.3656,1.366,1.367,1.3679,1.3685,1.3684,1.3672,1.3671,1.3675,1.3678,1.368,1.3678,1.3611,1.3669,1.3669,1.3668,1.3668,1.3668,1.3666,1.3677,1.3676,1.3684,1.3685,1.3688,1.3697,1.3693,1.3701,1.3708,1.37,1.3712,1.3712,1.3718,1.3719,1.3728,1.3719,1.3726,1.3727,1.3729,1.3731,1.3679,1.3729,1.3729,1.3729,1.3729,1.3729,0,1.3721,1.3719,1.3727,1.3731,1.3738,1.3725,1.3727,1.3733,1.3744,1.3745,1.3751,1.3762,1.377,1.3765,1.3772,1.378,1.3774,1.3782,1.3781,1.3781,1.374,1.3735,1.3786,1.3786,1.3786,1.3786,1.3786,1.3786,1.3751,1.3768,1.3763,1.378,1.3778,1.3789,1.3791,1.3793,1.3794,1.3806,1.3812,1.3809,1.3808,1.3814,1.382,1.3819,1.3822,1.3831,1.3828,1.3789,1.3784,1.3778,1.3773,1.3832,1.3832,1.3867,1.3868,1.3868]}]]